When you browse on this site, cookies collect data to enhance your experience and personalize the content and advertising you see.
Visit our Privacy Policy to learn more. By continuing to use the site, you agree to this use of cookies and data.
  • en Suisse
  • Liste des pays
  • À 7 jours
  • Température de l'eau
  • Carte satellitaire
  • Carte météo
  • Widgets météo
  • user-avatar
    Se connecter

    Météo par heure à Tolukovychi

    Ce jour, 23 Juillet, Mardi

    Heure Température Précipitation Vent Pression Humidité
    00:00 +19°C° 0.4 mm 1 m/s 742 mmHg 85%
    01:00 +19°C° 0.4 mm 1 m/s 742 mmHg 88%
    02:00 +18°C° 0 mm 1 m/s 742 mmHg 91%
    03:00 +18°C° 0.6 mm 1 m/s 742 mmHg 91%
    04:00 +17°C° 0.6 mm 2 m/s 742 mmHg 91%
    05:00 +17°C° 0.6 mm 2 m/s 741 mmHg 90%
    06:00 +17°C° 0.3 mm 3 m/s 742 mmHg 90%
    07:00 +18°C° 0.3 mm 3 m/s 742 mmHg 89%
    08:00 +18°C° 0.3 mm 3 m/s 742 mmHg 88%
    09:00 +18°C° 0.3 mm 3 m/s 742 mmHg 87%
    10:00 +18°C° 0.3 mm 4 m/s 742 mmHg 87%
    11:00 +18°C° 0.3 mm 4 m/s 742 mmHg 87%
    12:00 +19°C° 0.1 mm 4 m/s 742 mmHg 81%
    13:00 +20°C° 0.1 mm 4 m/s 742 mmHg 75%
    14:00 +21°C° 0.1 mm 4 m/s 742 mmHg 70%
    15:00 +21°C° 0 mm 4 m/s 742 mmHg 70%
    16:00 +21°C° 0 mm 4 m/s 742 mmHg 70%
    17:00 +21°C° 0 mm 4 m/s 742 mmHg 70%
    18:00 +20°C° 0 mm 4 m/s 741 mmHg 76%
    19:00 +19°C° 0 mm 3 m/s 741 mmHg 82%
    20:00 +17°C° 0 mm 3 m/s 741 mmHg 89%
    21:00 +17°C° 0 mm 3 m/s 741 mmHg 91%
    22:00 +16°C° 0 mm 2 m/s 741 mmHg 93%
    23:00 +15°C° 0 mm 2 m/s 742 mmHg 96%

    Demain, 24 Juillet, Mercredi

    Heure Température Précipitation Vent Pression Humidité
    00:00 +15°C° 0 mm 2 m/s 741 mmHg 96%
    01:00 +14°C° 0 mm 2 m/s 741 mmHg 96%
    02:00 +14°C° 0 mm 2 m/s 741 mmHg 97%
    03:00 +14°C° 0 mm 1 m/s 741 mmHg 97%
    04:00 +14°C° 0 mm 1 m/s 741 mmHg 97%
    05:00 +14°C° 0 mm 1 m/s 741 mmHg 97%
    06:00 +15°C° 0 mm 1 m/s 741 mmHg 94%
    07:00 +16°C° 0 mm 1 m/s 741 mmHg 91%
    08:00 +19°C° 0 mm 1 m/s 741 mmHg 88%
    09:00 +19°C° 0.1 mm 2 m/s 741 mmHg 84%
    10:00 +20°C° 0.1 mm 2 m/s 741 mmHg 79%
    11:00 +21°C° 0.1 mm 2 m/s 741 mmHg 74%
    12:00 +21°C° 0.2 mm 3 m/s 741 mmHg 75%
    13:00 +21°C° 0.2 mm 3 m/s 741 mmHg 76%
    14:00 +21°C° 0.2 mm 3 m/s 741 mmHg 77%
    15:00 +22°C° 0.1 mm 3 m/s 741 mmHg 75%
    16:00 +22°C° 0.1 mm 3 m/s 741 mmHg 74%
    17:00 +22°C° 0.1 mm 3 m/s 741 mmHg 72%
    18:00 +21°C° 0 mm 3 m/s 740 mmHg 77%
    19:00 +20°C° 0 mm 2 m/s 740 mmHg 82%
    20:00 +18°C° 0 mm 2 m/s 740 mmHg 88%
    21:00 +18°C° 0 mm 2 m/s 741 mmHg 89%
    22:00 +18°C° 0 mm 1 m/s 741 mmHg 90%
    23:00 +16°C° 0 mm 1 m/s 741 mmHg 92%

    Après-demain, 25 Juillet, Jeudi

    Heure Température Précipitation Vent Pression Humidité
    00:00 +16°C° 0 mm 1 m/s 741 mmHg 92%
    01:00 +16°C° 0 mm 1 m/s 741 mmHg 93%
    02:00 +15°C° 0 mm 1 m/s 741 mmHg 93%
    03:00 +15°C° 0 mm 1 m/s 741 mmHg 93%
    04:00 +15°C° 0 mm 1 m/s 741 mmHg 94%
    05:00 +15°C° 0 mm 1 m/s 741 mmHg 94%
    06:00 +16°C° 0 mm 1 m/s 741 mmHg 90%
    07:00 +19°C° 0 mm 1 m/s 741 mmHg 85%
    08:00 +21°C° 0 mm 1 m/s 741 mmHg 81%
    09:00 +22°C° 0 mm 1 m/s 742 mmHg 76%
    10:00 +23°C° 0 mm 2 m/s 742 mmHg 70%
    11:00 +25°C° 0 mm 2 m/s 742 mmHg 65%
    12:00 +25°C° 0 mm 2 m/s 741 mmHg 62%
    13:00 +26°C° 0 mm 2 m/s 741 mmHg 59%
    14:00 +27°C° 0 mm 2 m/s 741 mmHg 56%
    15:00 +27°C° 0 mm 2 m/s 740 mmHg 57%
    16:00 +27°C° 0 mm 2 m/s 740 mmHg 58%
    17:00 +27°C° 0 mm 3 m/s 740 mmHg 59%
    18:00 +25°C° 0.1 mm 2 m/s 739 mmHg 67%
    19:00 +23°C° 0.1 mm 2 m/s 739 mmHg 75%
    20:00 +21°C° 0.1 mm 2 m/s 739 mmHg 83%
    21:00 +21°C° 0.1 mm 1 m/s 739 mmHg 84%
    22:00 +20°C° 0.1 mm 1 m/s 739 mmHg 86%
    23:00 +19°C° 0.1 mm 1 m/s 739 mmHg 88%

    26 Juillet, Vendredi

    Heure Température Précipitation Vent Pression Humidité
    00:00 +19°C° 0 mm 1 m/s 739 mmHg 89%
    01:00 +19°C° 0 mm 1 m/s 739 mmHg 90%
    02:00 +18°C° 0 mm 1 m/s 739 mmHg 91%
    03:00 +18°C° 0 mm 1 m/s 738 mmHg 92%
    04:00 +18°C° 0 mm 1 m/s 738 mmHg 93%
    05:00 +16°C° 0 mm 1 m/s 738 mmHg 94%
    06:00 +18°C° 0.1 mm 1 m/s 738 mmHg 91%
    07:00 +19°C° 0.1 mm 2 m/s 738 mmHg 88%
    08:00 +20°C° 0.1 mm 2 m/s 738 mmHg 86%
    09:00 +21°C° 0.2 mm 3 m/s 738 mmHg 78%
    10:00 +22°C° 0.2 mm 3 m/s 738 mmHg 71%
    11:00 +25°C° 0.2 mm 3 m/s 738 mmHg 64%
    12:00 +25°C° 0.2 mm 3 m/s 737 mmHg 62%
    13:00 +25°C° 0.2 mm 3 m/s 737 mmHg 61%
    14:00 +25°C° 0.2 mm 3 m/s 737 mmHg 59%
    15:00 +25°C° 0.3 mm 3 m/s 736 mmHg 62%
    16:00 +24°C° 0.3 mm 3 m/s 736 mmHg 66%
    17:00 +24°C° 0.3 mm 3 m/s 736 mmHg 69%
    18:00 +21°C° 0.2 mm 2 m/s 736 mmHg 73%
    19:00 +20°C° 0.2 mm 2 m/s 736 mmHg 78%
    20:00 +20°C° 0.2 mm 1 m/s 736 mmHg 83%
    21:00 +19°C° 0 mm 1 m/s 736 mmHg 85%
    22:00 +18°C° 0 mm 1 m/s 736 mmHg 86%
    23:00 +16°C° 0 mm 1 m/s 736 mmHg 88%

    27 Juillet, Samedi

    Heure Température Précipitation Vent Pression Humidité
    00:00 +16°C° 0 mm 1 m/s 736 mmHg 89%
    01:00 +15°C° 0 mm 1 m/s 735 mmHg 91%
    02:00 +15°C° 0 mm 1 m/s 735 mmHg 93%
    03:00 +15°C° 0 mm 1 m/s 735 mmHg 94%
    04:00 +14°C° 0 mm 1 m/s 735 mmHg 96%
    05:00 +14°C° 0 mm 1 m/s 735 mmHg 97%
    06:00 +15°C° 0 mm 1 m/s 735 mmHg 94%
    07:00 +16°C° 0 mm 1 m/s 735 mmHg 92%
    08:00 +18°C° 0 mm 2 m/s 735 mmHg 90%
    09:00 +19°C° 0.1 mm 2 m/s 735 mmHg 87%
    10:00 +19°C° 0.1 mm 2 m/s 735 mmHg 83%
    11:00 +20°C° 0.1 mm 2 m/s 735 mmHg 80%
    12:00 +21°C° 0.2 mm 3 m/s 735 mmHg 79%
    13:00 +21°C° 0.2 mm 3 m/s 735 mmHg 78%
    14:00 +22°C° 0.2 mm 3 m/s 734 mmHg 76%
    15:00 +22°C° 0.1 mm 3 m/s 734 mmHg 76%
    16:00 +22°C° 0.1 mm 3 m/s 734 mmHg 76%
    17:00 +22°C° 0.1 mm 3 m/s 734 mmHg 76%
    18:00 +20°C° 0 mm 2 m/s 733 mmHg 81%
    19:00 +19°C° 0 mm 2 m/s 733 mmHg 85%
    20:00 +18°C° 0 mm 2 m/s 733 mmHg 90%
    21:00 +19°C° 0 mm 1 m/s 733 mmHg 92%
    22:00 +18°C° 0 mm 1 m/s 733 mmHg 93%
    23:00 +18°C° 0 mm 1 m/s 733 mmHg 94%

    28 Juillet, Dimanche

    Heure Température Précipitation Vent Pression Humidité
    00:00 +18°C° 0.2 mm 1 m/s 733 mmHg 95%
    01:00 +18°C° 0.2 mm 1 m/s 733 mmHg 96%
    02:00 +18°C° 0.2 mm 1 m/s 732 mmHg 96%
    03:00 +18°C° 0.1 mm 1 m/s 732 mmHg 97%
    04:00 +16°C° 0.1 mm 2 m/s 732 mmHg 98%
    05:00 +16°C° 0.1 mm 2 m/s 732 mmHg 98%
    06:00 +17°C° 0 mm 2 m/s 733 mmHg 96%
    07:00 +18°C° 0 mm 3 m/s 733 mmHg 95%
    08:00 +18°C° 0 mm 4 m/s 733 mmHg 93%
    09:00 +20°C° 0.2 mm 4 m/s 733 mmHg 87%
    10:00 +21°C° 0.2 mm 4 m/s 734 mmHg 82%
    11:00 +22°C° 0.2 mm 4 m/s 734 mmHg 77%
    12:00 +23°C° 0.4 mm 4 m/s 734 mmHg 74%
    13:00 +25°C° 0.4 mm 4 m/s 734 mmHg 71%
    14:00 +25°C° 0.4 mm 4 m/s 733 mmHg 69%
    15:00 +25°C° 0.3 mm 4 m/s 733 mmHg 69%
    16:00 +25°C° 0.3 mm 4 m/s 733 mmHg 69%
    17:00 +25°C° 0.3 mm 4 m/s 733 mmHg 70%
    18:00 +24°C° 0.3 mm 3 m/s 733 mmHg 76%
    19:00 +22°C° 0.3 mm 3 m/s 733 mmHg 83%
    20:00 +20°C° 0.3 mm 2 m/s 733 mmHg 90%
    21:00 +20°C° 0.1 mm 2 m/s 734 mmHg 91%
    22:00 +20°C° 0.1 mm 1 m/s 734 mmHg 92%
    23:00 +19°C° 0.1 mm 1 m/s 734 mmHg 93%
    Voir plus